User: anonymous   Login
Location: Vancouver
(49.2500°N, 123.1330°W)
Time: 20:29:31
(UTC-08:00)
Language:

H-2A R/B - Orbit

View from above orbital plane
View from above orbital plane
View from above satellite
View from above satellite

Ground track
Ground track

The orbit data is extracted from the following two-line orbital elements,

1 27601U 02056E   16041.21460458  .00000132  00000-0  64027-4 0  9990
2 27601  98.4309 118.4853 0071331 316.5794  63.8994 14.31685155687279
Epoch (UTC): 10 February 2016 05:09:01
Eccentricity: 0.0071331
inclination: 98.4309°
perigee height: 735 km
apogee height: 837 km
right ascension of ascending node: 118.4853°
argument of perigee: 316.5794°
revolutions per day: 14.31685155
mean anomaly at epoch: 63.8994°
orbit number at epoch: 68727

The dashed part of the orbit path shows where the satellite is in the earth's shadow,  

DLR